Location: Kalberh�ni
(46.4610°N, 7.2453°E)
Time: 05:15:00
(UTC+00:00)

Cosmos 1802 Rocket - Pass Details

Date: 31 October 2021
Orbit: 955 x 1010 km, 82.9° (Epoch: 05 December)

Event Time Altitude Azimuth Distance (km) Brightness Sun altitude
Rises 04:36:40 0° 357° (N) 3,695 7.0 -16.7°
Reaches altitude 10° 04:39:24 10° 5° (N) 2,751 6.4 -16.2°
Maximum altitude 04:45:13 38° 72° (ENE) 1,485 5.6 -15.2°
Drops below altitude 10° 04:51:04 10° 139° (SE) 2,768 7.1 -14.2°
Sets 04:53:48 0° 148° (SSE) 3,719 7.6 -13.8°
